www.pogodaiklimat.ru

Погода и климат >> Архив погоды >> Россия >> Краснодарский край >> Горный


ПОГОДА в Горном

  • Прогноз погоды в Горном
  • Монитор погоды в Горном

АРХИВ ПОГОДЫ в Горном

Время (UTC), дата Ветер
(напр.,м/с)
 
Видим.   Явления Облачность Т
(С)
Тd
(С)
f
(%)
Тe
(С)
Тes
(С)
Комфортность P
(гПа)
Po
(гПа)
Тmin
(С)
Tmax
(С)
R
(мм)
R24
(мм)
S
(см)
09 12.07 СВ 5
{10}
20 км 8/4 600 м
[Sc diur, vesp Ac lent Cc]
+19.8 +14.5 71 +22 +26 комфорт 1007.7 970.8
12 12.07 СВ 3 20 км 9/6 600 м
[Sc diur, vesp Cc]
+21.7 +13.9 61 +25 +28 комфорт 1007.4 970.8
15 12.07 СВ 2 20 км 9/3 600 м
[Sc diur, vesp Ac trans Cc]
+22.3 +14.8 63 +26 +27 жарко 1007.9 971.2 +23.5 0.0
18 12.07 С 1 20 км 4/3 600 м
[Sc diur, vesp Ci]
+16.3 +14.5 89 +17 +17 1009.4 971.9
21 12.07 штиль 0 20 км 10/8 600 м
[Sc diur, vesp Ac lent]
+15.3 +14.9 97 +15 +15 1009.7 972.1
00 13.07 штиль 0 20 км 10/8 600 м
[Sc diur, vesp Ac lent]
+14.7 +14.5 99 +14 +14 1008.8 971.2
03 13.07 штиль 0 10 км местами туман поземный 10/10 600 м
[Sc diur, vesp]
+14.2 +14.2 100 +14 +14 1009.5 971.8 +13.9
06 13.07 ЮЗ 3 50 км в посл. час ливневой дождь {туман} 8/5 600 м
[Cb calv Ci ing]
+18.3 +14.7 80 +19 +23 1009.2 972.0
09 13.07 ЮЗ 4
{10}
50 км 9/8 600 м
[Sc diur, vesp Ci ing]
+20.6 +13.7 65 +23 +26 комфорт 1009.6 972.7
12 13.07 ЮЗ 6-11
{12}
50 км 5/4 600 м
[Sc diur, vesp Ci sp]
+21.6 +11.7 53 +24 +27 комфорт 1009.7 972.9
15 13.07 ЮЗ 3
{11}
50 км {ливн. осадки} 5/5 600 м
[Sc diur, vesp]
+19.7 +14.4 71 +22 +23 комфорт 1010.8 973.8 +22.4 0.8
18 13.07 штиль 0 50 км {ливн. осадки} 3/1 600 м
[Sc diur, vesp Ci fib]
+15.0 +14.4 96 +15 +15 1012.1 974.4
21 13.07 штиль 0 50 км местами туман поземный 1/0
[Ci fib]
+12.2 +12.2 100 +11 +11 1012.4 974.3
00 14.07 С 1 50 км местами туман поземный ясно +11.0 +11.0 100 +11 +11 1012.1 973.8
03 14.07 СВ 1 50 км местами туман поземный 1/0
[Ci fib]
+11.0 +10.4 96 +11 +11 1011.8 973.5 +10.1
06 14.07 В 1 50 км 1/1 1000 м
[Cu hum]
+19.3 +13.6 70 +22 +33 комфорт 1010.6 973.4
09 14.07 Ю 1 50 км 3/3 1000 м
[Cu hum]
+24.2 +11.0 43 +25 +41 комфорт 1008.6 972.2
12 14.07 В 1 50 км 6/4 600 м
[Cu med, cong Ci]
+25.6 +11.1 40 +27 +35 жарко 1007.7 971.4
15 14.07 З 1 50 км 10/4 600 м
[Sc diur, vesp Cs]
+22.9 +12.7 53 +26 +27 жарко 1007.3 970.8 +26.0
18 14.07 СВ 2 50 км 10/0
[Ac lent Ci fib]
+18.4 +14.8 80 +19 +19 1007.8 970.7
21 14.07 С 1 50 км 5/0
[Ci fib]
+15.8 +14.4 91 +16 +16 1006.7 969.3
00 15.07 СВ 2 50 км 8/0
[Ac cast Ci sp]
+14.4 +13.1 92 +14 +14 1005.4 967.8
03 15.07 СВ 2 50 км местами туман поземный 4/3 600 м
[Sc diur, vesp Ci fib]
+14.1 +13.2 94 +14 +14 1004.1 966.6 +13.2
06 15.07 С 2 50 км 10/6 600 м
[Sc Ac As]
+17.6 +14.1 80 +18 +19 1003.7 966.6
09 15.07 СВ 1
{10}
20 км слаб. ливневой дождь 10/10 600 м
[Cb cap]
+17.2 +16.6 96 +18 +18 1004.5 967.3
12 15.07 СЗ 1 4000 м ливневой дождь 10/10 300 м
[Cb cap]
+16.3 +16.3 100 +17 +17 1006.0 968.7
15 15.07 В 3 20 км {ливн. осадки} 6/4 600 м
[Sc diur, vesp Ac lent]
+17.9 +16.1 89 +18 +19 1004.4 967.3 +18.7 14
18 15.07 ЮЗ 2 1000 м ливневой дождь 10/10 600 м
[Cb cap]
+16.8 +16.8 100 +17 +17 1005.9 968.7
21 15.07 штиль 0 10 км слаб. ливневой дождь 10/10 600 м
[Cb cap]
+16.4 +16.4 100 +16 +16 1006.0 968.8
00 16.07 ЮЗ 2 20 км {ливн. осадки} 10/6 600 м
[St Ac As]
+16.3 +14.3 88 +16 +16 1005.4 968.2
03 16.07 Ю 3 н/о {ливн. осадки} н/о +17.2 +17.2 100 +17 +17 1005.5 968.3 +15.8 37
06 16.07 ЮЗ 2 10 км слаб. ливневой дождь 10/10 600 м
[Cb cap]
+17.3 +17.3 100 +18 +18 1006.0 968.9
09 16.07 ЮЗ 3 20 км {ливн. осадки} 8/8 600 м
[Sc diur, vesp]
+19.5 +16.4 82 +22 +25 комфорт 1006.8 969.9
12 16.07 ЮЗ 6-10
{12}
н/о {ливн. осадки} н/о +21.7 +15.7 69 +25 +27 комфорт 1007.7 971.0
15 16.07 ЮЗ 4
{11}
20 км 5/3 600 м
[Sc diur, vesp Ci fib]
+20.6 +15.8 74 +24 +25 комфорт 1009.1 972.3 +22.0 10
18 16.07 ЮЗ 3 50 км 3/3 600 м
[Sc diur, vesp]
+18.1 +15.8 86 +18 +18 1010.8 973.5
21 16.07 штиль 0 10 км местами туман поземный ясно +15.1 +15.1 100 +15 +15 1011.1 973.4
00 17.07 штиль 0 500 м туман ясно +13.4 +13.4 100 +13 +13 1010.5 972.6
03 17.07 штиль 0 500 м туман ясно +12.2 +12.2 100 +11 +12 1010.4 972.4 +11.3
06 17.07 СВ 2 50 км {туман} 3/0
[Ci fib]
+20.9 +14.3 66 +24 +34 комфорт 1008.4 971.6
09 17.07 С 3 50 км 1/1 600 м
[Cu hum]
+25.5 +14.4 50 +28 +42 жарко 1006.7 970.5
12 17.07 СВ 4 50 км 4/3 600 м
[Cu hum Ci fib]
+26.5 +15.7 51 +30 +36 душно 1005.8 969.8
15 17.07 СВ 3 50 км 1/1 600 м
[Cu hum]
+25.5 +15.7 55 +29 +30 душно 1005.4 969.3 +26.7
18 17.07 С 2 50 км 3/0
[Ci fib]
+20.8 +15.7 73 +25 +25 комфорт 1006.1 969.4
21 17.07 СВ 1 50 км 3/0
[Ci fib]
+16.3 +15.8 97 +17 +17 1006.8 969.4
00 18.07 СВ 1 50 км 5/0
[Ac cast Ci sp]
+15.1 +14.5 96 +16 +16 1006.6 969.1
03 18.07 СВ 1 20 км слаб. ливневой дождь 10/8 600 м
[Cb cap Ci sp]
+14.9 +14.7 99 +15 +15 1006.7 969.2 +14.5 0.0
06 18.07 штиль 0 20 км {ливн. осадки} 9/5 600 м
[Sc diur, vesp Ac cast]
+17.8 +14.8 83 +18 +21 1006.4 969.2
09 18.07 В 1 20 км {ливн. осадки} 10/10 600 м
[Sc diur, vesp]
+20.0 +17.3 84 +24 +24 комфорт 1007.4 970.5
12 18.07 С 2 50 км {ливн. осадки} 9/4 600 м
[Cu med, cong Ac cast Ci]
+24.0 +18.0 69 +28 +33 душно 1006.7 970.3
15 18.07 СВ 2 50 км 9/8 600 м
[Sc diur, vesp Ac cast]
+23.5 +18.0 71 +28 +28 душно 1008.0 971.6 +25.0 0.8
18 18.07 С 2 20 км 10/4 600 м
[Sc diur, vesp Cc]
+20.1 +18.4 90 +24 +24 комфорт 1010.0 973.0
21 18.07 В 1 20 км зарница 10/8 600 м
[Cb cap Ac cast]
+17.9 +17.4 97 +19 +19 1011.3 974.0
00 19.07 С 1 10 км местами туман поземный 10/6 600 м
[Sc diur, vesp Ac cast]
+17.7 +17.6 99 +19 +19 1011.9 974.6
03 19.07 СВ 1 10 км местами туман поземный 10/4 600 м
[Sc diur, vesp Ac cast Cc]
+17.3 +17.2 99 +18 +18 1013.1 975.7 +17.1
06 19.07 СВ 4 20 км 9/4 600 м
[Sc diur, vesp Ac lent Ci sp]
+21.4 +18.2 82 +26 +28 душно 1013.0 976.2

 

Местоположение метеостанции Горный (Краснодарский край, Россия): широта 44.28 долгота 39.27 высота над уровнем моря 323 м.

В архиве по умолчанию представлена погода в Горном за последнюю неделю. Архивные данные за месяц целиком и за предыдущие месяцы, начиная с января 2011 года, Вы можете получить, выбрав интересующий диапазон дат из раскрывающегося списка и нажав кнопку "Ввод!".


*Определитесь, кто Вы:
робот инопланетянин человек

Внимание! Время в таблицах - всемирное. Для получения местного времени необходимо прибавить поправку, которая равна 3 ч.

Смотрите также архив погоды в соседних городах и на ближайших метеорологических станциях:

Погода в Туапсе (Краснодарский край, Россия) (26 км)
Погода в Магри (Краснодарский край, Россия) (30 км)
Погода в Горячем Ключе (Краснодарский край, Россия) (41 км)
Погода в Лазаревском (Краснодарский край, Россия) (43 км)
Погода в Джубге (Краснодарский край, Россия) (44 км)
Погода в Кичмае (Краснодарский край, Россия) (54 км)
Погода в Солох Ауле (Краснодарский край, Россия) (61 км)
Погода в Шунтуке (Адыгея, Россия) (71 км)
Погода в Белореченске (Краснодарский край, Россия) (72 км)
Погода в Майкопе (Адыгея, Россия) (75 км)

Пояснения к столбцам:

Ветер - указаны скорость ветра в м/с - средняя за 10 мин, порывы в срок и между сроками (в фигурных скобках) и направление, откуда дует ветер: С - северный, СВ - северо-восточный, В - восточный, ЮВ - юго-восточный, Ю - южный, ЮЗ - юго-западный, З - западный, СЗ - северо-западный.
Видимость - горизонтальная дальность видимости в метрах или километрах. При видимости от 1 до 10 км при отсутствии осадков обычно наблюдается дымка, при ухудшении видимости до 1 км и менее - туман. В сухую погоду видимость может ухудшаться дымом, пылью или мглою.
Явления - указаны атмосферные явления, наблюдавшиеся в срок или в последний час перед сроком; фигурными скобками обозначены явления, наблюдавшиеся между сроками (за 1-3 часа до срока); квадратными скобками обозначены град или гололедные отложения с указанием их диаметра в мм.
Облачность - указаны через наклонную черту общая и нижняя облачность в баллах и высота нижней границы облаков в метрах; квадратными скобками обозначены формы облаков: Ci - перистые, Cs - перисто-слоистые, Cc - перисто-кучевые, Ac - высококучевые, As - высокослоистые, Sc - слоисто-кучевые, Ns - слоисто-дождевые, Cu - кучевые, Cb - кучево-дождевые. Подробнее классификацию облаков см. в Атласе облаков (PDF).
T - Температура воздуха - температура, измеренная на высоте 2 м над землей.
Td - Температура точки росы - температура, при понижении до которой содержащийся в воздухе водяной пар достигнет насыщения.
f - Относительная влажность воздуха - влажноcть воздуха, измеренная на высоте 2 м над землей.
Te - Эффективная температура - температура, которую ощущает одетый по сезону человек в тени. Характеристика душности погоды. При расчете учитывается влияние влажности воздуха и скорости ветра на теплоощущения человека.
Tes - Эффективная температура на солнце - температура, которую ощущает человек, с поправкой на солнечный нагрев. Характеристика знойности погоды. Зависит от высоты солнца над горизонтом, облачности и скорости ветра. Ночью, в пасмурную погоду, а также при ветре 12 м/с и более поправка равна нулю.
P - Атмосферное давление - приведенное к уровню моря атмосферное давление.
Po - Атмосферное давление - измеренное на уровне метеостанции атмосферное давление.
Tmin - Минимальная температура - минимум температуры воздуха на высоте 2 м над землей.
Tmax - Максимальная температура - максимум температуры воздуха на высоте 2 м над землей.
R - Количество осадков - Количество выпавших осадков за период времени, мм. При наведении курсора мыши на число - период времени, за который выпало указанное количество осадков.
R24 - Количество осадков - Количество выпавших осадков за 24 часа, мм.
S - Снежный покров - Высота снежного покрова, см. При наведении курсора мыши на число - состояние снежного покрова и степень покрытия местности в баллах.